Tracking 19717 objects as of 25-Jun-2019
HD Live streaming from Space Station
objects crossing your sky now

FENGYUN 1C DEB

Track FENGYUN 1C DEB now!
10-day predictions


NORAD ID: 30448
Int'l Code: 1999-025AFK
Perigee: 826.1 km
Apogee: 857.8 km
Inclination: 99.0 °
Period: 101.6 minutes
Semi major axis: 7212 km
RCS: 0.055 m2 (small)
Launch date: May 10, 1999
Source: People's Republic of China (PRC)
Launch site: Taiyaun Space Center, China (TSC)

Note: This is SATELLITE DEBRIS
aabbcc
Your satellite tracking list
Your tracking list is empty




NASA's NSSDC Master Catalog

Two Line Element Set (TLE):
1 30448U 99025AFK 19176.12493378  .00000399  00000-0  22001-3 0  9994
2 30448  98.9761 215.0536 0022010 329.3080  97.9290 14.17209577637941
Source of the keplerian elements: AFSPC